posició dorsal temps
1 (1) 426 DAVID PALLARES GARCIA 2:41:38
2 (2) 394 ANGEL NEVADO IGLESIAS 2:43:18
3 (3) 409 EDUARD BOLADERAS PONS 2:50:32
4 (4) 371 ANTONI GRANERO ROSSINYOL 2:50:34
5 (5) 407 OSCAR HUERTAS CASADO 2:51:49
6 (6) 412 ERIC ESCANEZ DIAS 2:52:22
7 (7) 404 ERIC HERNANDEZ NAVARRO 2:56:59
8 (8) 416 DAVID FISENUR 3:02:12
9 (9) 381 JOSEP ANTON MOYA ARJANT 3:02:25
10 (10) 383 RAMON VILÀ MORA 3:02:52
11 (11) 415 MARC CASTELLS SALA 3:04:11
12 (12) 307 XAVIER BURGOS LUZON 3:04:48
13 (13) 325 XAVIER ROMERO CASAS 3:05:35
14 (14) 356 LLUIS GRANDIA GRAUS 3:06:13
15 (15) 323 RAMSÉS MORENO RUIPEREZ 3:08:05
16 (16) 359 JOAN RIBALTA COSTA 3:11:08
17 (17) 389 ISMA MARTINEZ PONT 3:11:14
18 (18) 328 FERNANDO GARCIA MARIN 3:11:23
19 (19) 401 DAVID LOPEZ RUIZ 3:11:59
20 (20) 319 PEP CARRERA CANIEGO 3:12:13
21 (21) 337 VICTOR GIMENEZ MARTIN 3:13:42
22 (22) 340 DAVID CÀNOVAS COTS 3:15:27
23 (23) 365 LLUÍS COSTA RIU 3:15:27
24 (24) 368 PACO RODRIGUEZ BERRAQUERO 3:19:23
25 (25) 338 JOSEP M CASTELL NOGUERA 3:21:08
26 (26) 367 CARLES GARCIA PANTRIGO 3:21:08
27 (27) 422 QUICO GUITERAS PETITBO 3:22:16
28 (28) 393 FRANCESC SABATA COROMINAS 3:23:56
29 (29) 421 SERGI LOPEZ MILLA 3:28:16
30 (30) 324 POL BALTÀ JOSA 3:28:57
31 (31) 396 VALERII CAPLIN 3:29:00
32 (32) 410 CRISTIAN CUMPLIDO MALDONADO 3:29:55
33 (33) 411 ABEL BAU FORNÇES 3:29:56
34 (34) 339 ALBERT CÀNOVAS COTS 3:33:13
35 (35) 348 VICENTE MUÑOZ ROMERO 3:33:40
36 (36) 413 JORDI COROMINAS ARIAS 3:33:47
37 (37) 377 RUBÉN MASNOU RIBAS 3:38:56
38 (38) 301 ALBERT VILA NAVARRO 3:40:26
39 (39) 304 SEBASTIA RUBIO ROS 3:40:27
40 (40) 385 CARLES TORT 3:46:55
41 (1) 424 LAURA VIÑAS 3:47:09
42 (41) 330 JORDI PUIG COSTA 3:47:09
43 (42) 75 ALBERT COSTA AGUSTINA 3:47:31
44 (43) 74 FELIX COSTA 3:47:32
45 (44) 5 DOMENECH MASPONS GUARDIA 3:48:17
46 (45) 341 LLORENÇ CASTANYER SOLER 3:51:20
47 (46) 345 KEVIN URBANEJA MARQUEZ 3:51:21
48 (47) 408 JOAN ORRIOLS BADIA 3:51:22
49 (48) 357 ALBERT CANTOS SINGUERLIN 3:56:36
50 (2) 397 CLAUDIA MARTINEZ RABERT 3:59:02
51 (3) 391 CRISTINA ROTXÉS AMBRÓS 3:59:06
52 (49) 398 JOAN ALBO FERNANDEZ 3:59:06
53 (50) 320 EVI YERRO SERRANO 4:06:17
54 (51) 346 DAVID SERRANO LOPEZ 4:06:18
55 (52) 372 SERGI BONHOME JORDANA 4:09:57
56 (53) 387 ERIC CASTILLO SANGUINO 4:12:21
57 (54) 303 XOSÉ GARRIDO JARA 4:12:33
58 (55) 369 SERGI JOVELL CLAVE 4:13:09
59 (56) 428 ORIOL SERRA 4:15:06
60 (57) 349 ANTONIO ASENCIO BARROSO 4:15:06
61 (58) 353 MAIKEL PEÑA PLEGUEZUELOS 4:15:08
62 (59) 382 ANTONI PLA TARRÉS 4:19:21
63 (60) 374 JORDI FRANQUESA SERRA 4:19:23
64 (61) 351 ALBERTO ALONSO DÍAZ 4:23:59
65 (62) 332 JOSE RUIZ RODRIGUEZ 4:24:53
66 (63) 36 MIQUEL CLADELLAS 4:25:07
67 (64) 355 JONATHAN ARRUFAT 4:25:30
68 (65) 358 ALBERT GOMEZ MOTA 4:25:31
69 (66) 331 MAIQUEL CABALLERO GARCÍA 4:25:37
70 (4) 390 MONTSE JUNCAROL REGUANT 4:28:26
71 (67) 388 DANIEL RIVERO SAZ 4:28:26
72 (68) 302 JORDI FIGULS GALLEGO 4:31:01
73 (69) 399 JORDI SANTMARTI BOATELLA 4:31:04
74 (70) 370 SERGI VALLDEPERAS RIBA 4:31:05
75 (71) 379 XAVI FERNANDEZ SIMON 4:31:08
76 (72) 327 XAVIER CAMPS 4:32:11
77 (73) 326 SAMU ROMERO BESSA 4:33:38
78 (74) 347 MANEL TORRECILLAS GUERRERO 4:33:39
79 (75) 317 MANEL HERNANDEZ TENA 4:33:39
80 (76) 414 JOSEP GOMEZ GIL 4:33:54
81 (77) 406 JOSE LUIS GOMEZ DE LA ROSA 4:35:39
82 (78) 427 ALBERT RIBERA PI 4:36:22
83 (79) 366 JOSEP RIBERA MARTINEZ 4:36:23
84 (80) 360 GONZALO RUIZ FERNANDEZ 4:36:35
85 (81) 362 ALBERT CORTINA PEREZ 4:37:18
86 (82) 311 FERMI FIGOLS PLAIXENS 4:38:15
87 (83) 373 SERGI SIMON SANTOS 4:38:16
88 (84) 305 JOSEP ANTONI VEGA MONTAÑES 4:38:17
89 (85) 354 ANTONIO ESPINOSA 4:38:18
90 (86) 363 ROBERT DIAZ GUIX 4:41:53
91 (87) 378 YANN BARLERIN 4:41:54
92 (88) 376 ALEXIS LUNA AUFROY 4:41:54
93 (89) 386 FRANCESC XAVIER GONZÁLEZ LÓPEZ 4:44:05
94 (90) 395 ALBERTO AZPELETA ORTIZ 4:44:40
95 (5) 343 MERITXELL OBRADORS BARONS 4:46:10
96 (6) 344 LÍDIA BORRÀS GARCIA 4:46:10
97 (91) 310 ADRI ALONSO 4:50:24
98 (92) 309 CARLOS REQUENA 4:50:25
99 (93) 308 JUAN LORENZO PAISANO SÁNCHEZ 4:50:25
100 (94) 361 CARLES GONZALEZ RODRIGUEZ 4:59:10
101 (7) 321 LAURA POZO DALMAU 5:03:12
102 (95) 318 FRANK BARROSO LARRUBIA 5:03:12
103 (96) 322 ERNEST MORENO CANO 5:03:12
104 (97) 392 CARLES CANO COMELLAS 5:03:13
105 (98) 335 DAVID NAVARRO LIRIO 5:05:54
106 (99) 342 JOAN FOLCH PORCAR 5:07:07
107 (100) 315 ARNAU MACIÀ  VERGARA 5:07:50
108 (8) 314 MARIONA CASAS ROLDAN 5:07:50
109 (101) 402 CARLOS LOPEZ SERRANO 5:09:23
110 (102) 316 JESÚS ARNALOT PALAZUELOS 5:09:25
111 (103) 352 JOAN LOPEZ CASAS 5:10:30
112 (104) 334 VALI VALERIU IULIAN DASCALU 5:15:13
113 (105) 333 JOAN RAMON OLLER FRANCH 5:15:13
114 (106) 329 ADRIÀ RODRIGUEZ JIMENEZ 5:15:14
115 (107) 420 RALPH MANCH 5:16:34
116 (108) 419 RICK PRUIJS 5:16:38
117 (109) 375 ARNAU COROMINAS 5:18:29
118 (9) 364 JANA SUÑOL GODOY 5:19:44
119 (110) 403 MARC VILA GABARROS 5:21:28
120 (111) 380 DAVID POCIELLO MELERO 5:21:28
121 (112) 418 VALENTÍ GARCIA SERRA 5:35:08
122 (113) 400 ADRIAN LOPEZ MARTINEZ 5:42:06
123 (114) 336 ADRIÁN REÑÉ BARRERA 5:42:07
124 (115) 417 JORDI DOLANO PUJOL 5:42:07